This demonstration page uses our WeatherBlox Daily Observations layout. Learn more.

Left ArrowRight Arrow

30.00354, -91.81873

Hourly Observations for July 6, 2022

Temp ( °F °C ) Dew Point ( °F °C ) Humidity (%) Winds ( mph kmh ) Pressure ( in mb ) Visibility ( mi km ) Precip ( " mm )
12:53 am 00:53 Clear 76 24.4 74 23.3 94 94 SE 3 6 30.00 1016 10 16 0.00 0.00
1:53 am 01:53 Clear 77 25 75 23.9 94 94 Calm 29.99 1016 10 16 0.00 0.00
2:53 am 02:53 Clear 77 25 75 23.9 94 94 SE 3 6 29.99 1016 10 16 0.00 0.00
3:53 am 03:53 Clear 77 25 75 23.9 94 94 S 3 6 29.99 1016 10 16 0.00 0.00
4:53 am 04:53 Mostly Cloudy 77 25 75 23.9 94 94 Calm 29.99 1016 10 16 0.00 0.00
5:00 am 05:00 Mostly Cloudy 77 25 75 23.9 94 94 SE 5 7 29.99 1015 10 16 0.00 0.00
5:31 am 05:31 Partly Cloudy 77 25 75 23.9 94 94 S 3 6 29.99 1015 10 16 0.00 0.00
5:53 am 05:53 Clear 77 25 74 23.3 90 90 E 3 6 29.98 1015 10 16 0.00 0.00
6:53 am 06:53 Sunny 77 25 75 23.9 94 94 ESE 3 6 30.01 1016 10 16 0.00 0.00
7:39 am 07:39 Mostly Cloudy 80 26.7 76 24.4 87 87 E 3 6 30.02 1017 10 16 0.00 0.00
7:53 am 07:53 Partly Cloudy 81 27.2 76 24.4 85 85 E 5 7 30.02 1017 10 16 0.00 0.00
8:53 am 08:53 Partly Cloudy 85 29.4 77 25 77 77 Calm 30.03 1017 10 16 0.00 0.00
9:09 am 09:09 Mostly Cloudy 86 30 78 25.6 77 77 VRB 3 6 30.04 1017 10 16 0.00 0.00
9:45 am 09:45 Mostly Cloudy 87 30.6 78 25.6 75 75 ESE 3 6 30.04 1017 10 16 0.00 0.00
9:53 am 09:53 Mostly Cloudy 84 28.9 77 25 80 80 S 9 15 30.04 1017 10 16 0.00 0.00
10:18 am 10:18 Cloudy with Light Rain 81 27.2 76 24.4 85 85 SSW 6 9 30.04 1017 10 16 0.00 0.00
10:53 am 10:53 Mostly Cloudy with Light Rain 83 28.3 75 23.9 77 77 SW 8 13 30.04 1017 10 16 0.03 0.76
11:53 am 11:53 Sunny 86 30 74 23.3 67 67 W 7 11 30.04 1017 10 16 0.00 0.00
12:53 pm 12:53 Mostly Sunny 85 29.4 74 23.3 70 70 SW 8 13 30.04 1017 10 16 0.00 0.00
1:53 pm 13:53 Mostly Cloudy 84 28.9 74 23.3 72 72 WSW 6 9 30.03 1017 10 16 0.00 0.00
2:53 pm 14:53 Sunny 85 29.4 75 23.9 72 72 Calm 30.03 1017 10 16 0.00 0.00
3:53 pm 15:53 Sunny 86 30 74 23.3 67 67 SW 3 6 29.99 1016 10 16 0.00 0.00
4:53 pm 16:53 Sunny 88 31.1 73 22.8 61 61 SSW 5 7 29.98 1015 10 16 0.00 0.00
5:53 pm 17:53 Sunny 89 31.7 73 22.8 59 59 W 7 11 29.96 1015 10 16 0.00 0.00
6:53 pm 18:53 Sunny 88 31.1 72 22.2 59 59 SW 3 6 29.97 1015 10 16 0.00 0.00
7:53 pm 19:53 Sunny 85 29.4 75 23.9 72 72 SSW 5 7 29.97 1015 10 16 0.00 0.00
8:53 pm 20:53 Clear 81 27.2 75 23.9 82 82 SSW 5 7 29.97 1015 10 16 0.00 0.00
9:53 pm 21:53 Clear 79 26.1 75 23.9 88 88 SSE 3 6 29.99 1016 10 16 0.00 0.00
10:53 pm 22:53 Clear 78 25.6 75 23.9 90 90 SSE 6 9 29.99 1016 10 16 0.00 0.00
11:53 pm 23:53 Clear 78 25.6 75 23.9 90 90 Calm 29.98 1015 10 16 0.00 0.00

Powered by AerisWeather